Tracking 29892 objects as of 21-Nov-2024
HD Live streaming from Space Station
objects crossing your sky now

EKRAN 20

Track EKRAN 20 now!
EKRAN 20 is classified as:


NORAD ID: 22210
Int'l Code: 1992-074A
Perigee: 35,757.6 km
Apogee: 35,813.6 km
Inclination: 14.0 °
Period: 1,435.7 minutes
Semi major axis: 42156 km
RCS: 6.3095 m2 (large)
Launch date: October 30, 1992
Source: Commonwealth of Independent States (former USSR) (CIS)
Launch site: TYURATAM MISSILE AND SPACE COMPLEX (TTMTR)
Your satellite tracking list
Your tracking list is empty




NASA's NSSDC Master Catalog

Two Line Element Set (TLE):
1 22210U 92074A   24325.84194549 -.00000301  00000-0  00000-0 0  9994
2 22210  14.0298 348.4916 0006643 196.7465 274.1151  1.00300850 41626
Source of the keplerian elements: AFSPC